Regional Weather Roundup
Issued by NWS Cleveland, OH

Home | Current Version | Previous Version | Graphics & Text | Print | Product List | Glossary On
Versions: 1 2 3 4 5 6 7 8 9 10 11 12 13 14 15 16 17 18 19 20 21 22 23 24 25 26 27 28 29 30 31 32 33 34 35 36 37 38 39 40 41 42 43 44 45 46 47 48 49 50
246
ASUS41 KCLE 240110
RWRCLE
OHIO REGIONAL WEATHER ROUNDUP
NATIONAL WEATHER SERVICE CLEVELAND, OH
900 PM EDT MON APR 23 2018

NOTE: "FAIR" INDICATES FEW OR NO CLOUDS BELOW 12,000 FEET WITH NO
SIGNIFICANT WEATHER AND/OR OBSTRUCTIONS TO VISIBILITY.

OHZ001>008-015>018-024>027-034-035-043-044-240200-
   NORTHWEST OHIO

CITY           SKY/WX    TMP DP  RH WIND       PRES   REMARKS
DEFIANCE       CLOUDY    56  46  69 SE12G20   30.16R
FINDLAY        CLOUDY    59  40  49 SE17G26   30.15S
TOLEDO EXPRESS CLOUDY    59  47  64 S5        30.17R
TOLEDO EXEC    CLOUDY    58  47  66 S14       30.17S
LIMA           CLOUDY    53  47  79 SE13      30.14F
$$

OHZ009>014-019>023-028>033-038-089-240200-
   NORTHEAST OHIO

CITY           SKY/WX    TMP DP  RH WIND       PRES   REMARKS
CLE-HOPKINS    CLOUDY    61  42  49 SW13      30.19R
CLE-LAKEFRONT  FAIR      50  40  68 SW3       30.17R
CUY CO. ARPT   MOCLDY    64  45  48 SW6       30.17R
LORAIN-ELYRIA  CLOUDY    56  41  57 SW5       30.19R
ASHTABULA      FAIR      64  35  34 SE7       30.19R
AKRON-CANTON   CLOUDY    59  39  47 SW9       30.20R
WOOSTER        CLOUDY    55  43  63 SW10      30.20R
MANSFIELD      CLOUDY    54  43  66 S9        30.18S
YOUNGSTOWN     CLOUDY    65  36  34 SE12G18   30.18R
$$

OHZ042-051>053-060>062-070>072-077>081-240200-
  SOUTHWEST OHIO

CITY           SKY/WX    TMP DP  RH WIND       PRES   REMARKS
CINC-COVINGTON CLOUDY    54  50  86 E13       30.06R
CINC-LUNKEN    CLOUDY    54  51  90 E8        30.08S
HAMILTON       LGT RAIN  54  50  86 E9        30.09S
DAYTON         CLOUDY    52  50  93 E16       30.12S
WRIGHT-PAT AFB NOT AVBL
DAYTON GENERAL LGT RAIN  53  48  83 E13G21    30.09S
WILMINGTON     CLOUDY    51  49  92 E12G20    30.10F
$$

OHZ036-037-039>041-045>050-054>059-063>069-073>076-082>088-240200-
  CENTRAL AND SOUTHEAST OHIO

CITY           SKY/WX    TMP DP  RH WIND       PRES   REMARKS
COLUMBUS       LGT RAIN  54  46  74 SE18      30.17S
OSU AIRPORT    LGT RAIN  55  45  68 SE24G32   30.17R
BOLTON FIELD   LGT RAIN  52  47  83 E13       30.17R
RICKENBACK AFB LGT RAIN  52  47  84 E10       30.16F
NEWARK         LGT RAIN  55  44  66 SE12      30.18S
MARION         CLOUDY    56  42  59 S18G28    30.18R
LANCASTER      LGT RAIN  52  46  80 SE14      30.17S
ZANESVILLE     LGT RAIN  56  43  61 SE12G22   30.20S
NEW PHILLY     CLOUDY    60  38  43 S6        30.21
$$




USA.gov is the U.S. government's official web portal to all federal, state and local government web resources and services.